Starlink 4738

operational
NORAD ID: 53819 Int'l Des: 2022-114 Owner: SPXS Country: US Constellation: starlink
LEOCIRCULAR

Über Starlink 4738

Beschreibung wird geladen...

Live-Position

3D-Globus wird geladen...

Nächste Überflüge

Höhenverlauf

Altitude vs Time

uPlot chart will show altitude changes over time

Zweizeiliger Elementsatz

1 53819U 22114B 25352.28308459 -.00000214 00000-0 46361-5 0 9995
2 53819 53.2182 309.4396 0001425 91.8063 268.3092 15.08841344180548
Epoch: 18. Dez. 2025 • Age: 18 hours

Aktueller Status

Höhe 543.5 km
Geschwindigkeit 7.59 km/s
Subsatellitenpunkt -13.13°S, 30.89°E
Startdatum 19. Sept. 2022
Alter 3.2 years
Typ internet

Technische Details

Klassifizierung Payload
Masse 305.00 kg
Trockenmasse 290.00 kg
Gesamtmasse 305.00 kg
Länge 0.20 m
Durchmesser 2.80 m
Spannweite 9.00 m
Form Box + pan
Hersteller SPXS
Bus-Typ Starlink
Phasenstatus In Orbit
Besitzer/Staat SPXS/US

Große Konstellationen

Loading constellations...